FW8483 Weather Reports


time (UTC)temp
F
wind
direction
speed
knots
gust
knots
rain 1hr
in
rain 24hr
in
rain mn
in
humidity
%
barometer
mb
20260831164003 87 57 2.6 7.8 0.00 0.00 0.00 75 1018.7
20260831163503 87 94 4.3 8.7 0.00 0.00 0.00 74 1018.7
20260831163008 86 59 4.3 8.7 0.00 0.00 0.00 71 1018.6
20260831162504 86 90 2.6 8.7 0.00 0.00 0.00 76 1018.8
20260831162004 85 71 1.7 8.7 0.00 0.00 0.00 77 1018.7
20260831161505 85 30 5.2 9.6 0.00 0.00 0.00 75 1018.7
20260831161003 85 26 4.3 9.6 0.00 0.00 0.00 78 1018.9
20260831160503 86 58 4.3 7.8 0.00 0.00 0.00 76 1019.1
20260831160010 85 65 3.5 7.8 0.00 0.00 0.00 78 1019.2
20260831155504 85 9 2.6 7.8 0.00 0.00 0.00 78 1019.2
20260831155002 85 98 3.5 8.7 0.00 0.00 0.00 79 1019.4
20260831154519 85 107 5.2 8.7 0.00 0.00 0.00 79 1019.4
20260831154003 85 94 2.6 7.0 0.00 0.00 0.00 80 1019.4
20260831153502 84 83 2.6 7.8 0.00 0.00 0.00 80 1019.5
20260831153009 84 94 2.6 7.8 0.00 0.00 0.00 81 1019.5
20260831152503 84 82 6.1 7.8 0.00 0.00 0.00 80 1019.5
20260831152006 84 352 2.6 7.0 0.00 0.00 0.00 82 1019.5
20260831151510 84 82 5.2 7.0 0.00 0.00 0.00 80 1019.5
20260831151005 83 58 4.3 7.0 0.00 0.00 0.00 83 1019.5
20260831150504 83 59 4.3 8.7 0.00 0.00 0.00 81 1019.4
20260831150010 83 74 5.2 8.7 0.00 0.00 0.00 82 1019.5
20260831145503 83 70 5.2 8.7 0.00 0.00 0.00 83 1019.5
20260831145003 82 107 2.6 7.0 0.00 0.00 0.00 84 1019.4
20260831144521 82 71 4.3 7.0 0.00 0.00 0.00 84 1019.4
20260831144005 82 38 3.5 7.8 0.00 0.00 0.00 85 1019.3
20260831143504 81 86 5.2 7.8 0.00 0.00 0.00 85 1019.4
20260831143008 81 90 4.3 6.1 0.00 0.00 0.00 86 1019.5
20260831142502 80 69 3.5 7.0 0.00 0.00 0.00 87 1019.6
20260831142004 80 85 4.3 7.0 0.00 0.00 0.00 88 1019.6
20260831141512 80 95 2.6 7.0 0.00 0.00 0.00 89 1019.5
20260831141005 79 67 3.5 7.0 0.00 0.00 0.00 88 1019.4
20260831140505 79 56 2.6 7.0 0.00 0.00 0.00 90 1019.4
20260831140008 78 74 3.5 7.0 0.00 0.00 0.00 90 1019.4
20260831135503 78 74 4.3 7.0 0.00 0.00 0.00 90 1019.4
20260831135004 78 98 2.6 5.2 0.00 0.00 0.00 93 1019.3
20260831134510 78 76 2.6 5.2 0.00 0.00 0.00 92 1019.3
20260831134004 77 83 2.6 5.2 0.00 0.00 0.00 92 1019.4
20260831133507 77 94 4.3 5.2 0.00 0.00 0.00 92 1019.2
20260831133009 77 46 1.7 4.3 0.00 0.00 0.00 93 1019.2
20260831132506 76 70 2.6 5.2 0.00 0.00 0.00 93 1019.2
20260831132006 76 28 2.6 7.0 0.00 0.00 0.00 93 1019.0
20260831131510 76 43 1.7 7.0 0.00 0.00 0.00 94 1018.8
20260831131006 76 76 3.5 6.1 0.00 0.00 0.00 94 1018.7
20260831130503 75 70 2.6 6.1 0.00 0.00 0.00 94 1018.8
20260831130009 75 39 2.6 6.1 0.00 0.00 0.00 94 1018.8
20260831125506 75 28 1.7 5.2 0.00 0.00 0.00 94 1018.8
20260831125005 75 61 3.5 5.2 0.00 0.00 0.00 94 1018.8
20260831124510 75 57 1.7 7.0 0.00 0.00 0.00 95 1018.8
20260831124003 74 57 2.6 7.0 0.00 0.00 0.00 95 1018.7
20260831123504 74 42 2.6 7.0 0.00 0.00 0.00 95 1018.6
20260831123009 74 27 2.6 5.2 0.00 0.00 0.00 95 1018.5
20260831122505 74 19 2.6 5.2 0.00 0.00 0.00 96 1018.6
20260831122006 74 55 2.6 5.2 0.00 0.00 0.00 96 1018.6
20260831121517 74 45 1.7 4.3 0.00 0.00 0.00 96 1018.5
20260831121007 74 46 0.9 4.3 0.00 0.00 0.00 96 1018.6
20260831120506 74 27 1.7 3.5 0.00 0.00 0.00 96 1018.5
20260831120021 73 47 0.9 3.5 0.00 0.00 0.00 96 1018.5
20260831115504 73 40 1.7 3.5 0.00 0.00 0.00 96 1018.4
20260831115006 73 59 1.7 3.5 0.00 0.00 0.00 96 1018.3
20260831114513 73 22 1.7 3.5 0.00 0.00 0.00 96 1018.2
20260831114007 73 352 1.7 3.5 0.00 0.00 0.00 96 1018.3
20260831113507 73 45 1.7 3.5 0.00 0.00 0.00 96 1018.2
20260831113013 73 21 0.9 3.5 0.00 0.01 0.00 96 1018.1
20260831112506 73 26 0.9 3.5 0.00 0.01 0.00 96 1018.0
20260831112002 73 17 1.7 3.5 0.00 0.01 0.00 96 1018.0
20260831111526 73 23 0.9 3.5 0.00 0.01 0.00 96 1017.9
20260831111010 73 32 0.9 3.5 0.00 0.01 0.00 96 1017.8
20260831110507 73 12 1.7 3.5 0.00 0.01 0.00 96 1017.7
20260831110014 73 76 1.7 3.5 0.00 0.01 0.00 96 1017.6
20260831105505 73 59 0.0 2.6 0.00 0.01 0.00 96 1017.4
20260831105008 73 65 0.0 0.0 0.00 0.01 0.00 96 1017.3
20260831104528 73 68 0.0 0.0 0.00 0.01 0.00 96 1017.2
20260831104007 73 62 0.0 0.0 0.00 0.01 0.00 96 1017.2
20260831103508 73 59 0.0 0.0 0.00 0.01 0.00 96 1017.2
20260831103037 73 59 0.0 0.0 0.00 0.01 0.00 96 1017.3
20260831102507 73 59 0.0 0.0 0.00 0.01 0.00 96 1017.3
20260831102007 73 59 0.0 0.0 0.00 0.01 0.00 96 1017.3
20260831101517 73 71 0.0 1.7 0.00 0.01 0.00 96 1017.3
20260831101007 73 66 0.0 3.5 0.00 0.01 0.00 96 1017.2
20260831100506 73 76 1.7 3.5 0.00 0.01 0.00 96 1017.2
20260831100024 73 53 0.0 2.6 0.00 0.01 0.00 96 1017.2
20260831095506 73 60 0.9 2.6 0.00 0.01 0.00 96 1017.2
20260831095010 73 57 1.7 2.6 0.00 0.01 0.00 96 1017.3
20260831094528 73 49 0.0 2.6 0.00 0.01 0.00 96 1017.2
20260831094008 73 61 0.0 2.6 0.00 0.01 0.00 95 1017.2
20260831093508 74 83 1.7 2.6 0.00 0.01 0.00 96 1017.2
20260831093016 74 65 0.0 1.7 0.00 0.01 0.00 95 1017.2
20260831092507 74 66 0.0 0.0 0.00 0.01 0.00 96 1017.2
20260831092008 74 66 0.0 0.0 0.00 0.01 0.00 96 1017.1
20260831091516 74 25 0.0 0.0 0.00 0.01 0.00 96 1017.1
20260831091007 74 28 0.0 0.0 0.00 0.01 0.00 96 1017.2
20260831090510 74 62 0.0 0.0 0.00 0.01 0.00 96 1017.2
20260831090018 74 45 0.0 0.0 0.00 0.01 0.00 96 1017.2
20260831085508 74 48 0.0 0.0 0.00 0.01 0.00 95 1017.2
20260831085008 74 61 0.0 0.0 0.00 0.02 0.00 95 1017.1
20260831084520 74 80 0.0 0.0 0.00 0.02 0.00 95 1017.2
20260831084009 74 31 0.0 0.0 0.00 0.02 0.00 95 1017.2
20260831083509 74 31 0.0 0.0 0.00 0.02 0.00 95 1017.1
20260831083025 74 31 0.0 0.0 0.00 0.02 0.00 95 1017.2
20260831082508 74 31 0.0 0.0 0.00 0.02 0.00 95 1017.1
20260831082006 74 31 0.0 0.0 0.00 0.02 0.00 95 1017.1
20260831081519 74 31 0.0 0.0 0.00 0.02 0.00 95 1017.2
20260831081014 74 31 0.0 0.0 0.00 0.02 0.00 95 1017.2
20260831080512 74 352 0.0 0.0 0.00 0.02 0.00 95 1017.1
20260831080040 74 352 0.0 0.0 0.00 0.02 0.00 95 1017.1
20260831075507 74 5 0.0 0.0 0.00 0.02 0.00 95 1017.1
20260831075009 74 30 0.0 0.0 0.00 0.02 0.00 95 1017.1
20260831074524 74 30 0.0 0.0 0.00 0.02 0.00 95 1017.1
20260831074008 74 30 0.0 0.0 0.00 0.02 0.00 95 1017.2
20260831073511 74 30 0.0 0.0 0.00 0.02 0.00 95 1017.2
20260831073030 74 30 0.0 0.0 0.00 0.02 0.00 95 1017.3
20260831072510 74 30 0.0 0.0 0.00 0.02 0.00 95 1017.2
20260831072011 74 30 0.0 0.0 0.00 0.02 0.00 95 1017.1
20260831071520 74 30 0.0 0.0 0.00 0.02 0.00 95 1017.1
20260831071013 74 30 0.0 0.0 0.00 0.02 0.00 95 1017.1
20260831070511 74 30 0.0 0.0 0.00 0.03 0.00 95 1017.1
20260831070021 74 30 0.0 0.0 0.00 0.03 0.00 95 1017.2
20260831065512 74 30 0.0 0.0 0.00 0.03 0.00 95 1017.2
20260831065011 75 30 0.0 0.0 0.00 0.03 0.00 94 1017.2
20260831064521 75 30 0.0 0.0 0.00 0.03 0.00 94 1017.3
20260831064009 75 30 0.0 0.0 0.00 0.03 0.00 94 1017.4
20260831063510 75 30 0.0 0.0 0.00 0.03 0.00 94 1017.3
20260831063024 75 30 0.0 1.7 0.00 0.03 0.00 95 1017.4
20260831062510 75 30 0.0 1.7 0.00 0.03 0.00 95 1017.4
20260831062013 75 44 0.0 1.7 0.00 0.03 0.00 95 1017.4
20260831061524 75 36 0.0 0.9 0.00 0.03 0.00 95 1017.4
20260831061014 75 36 0.0 0.0 0.00 0.03 0.00 95 1017.4
20260831060512 75 11 0.0 0.0 0.00 0.03 0.00 95 1017.4
20260831060026 75 11 0.0 0.0 0.00 0.03 0.00 95 1017.5
20260831055507 75 11 0.0 0.0 0.00 0.03 0.00 95 1017.6
20260831055006 75 11 0.0 0.0 0.00 0.04 0.00 95 1017.4
20260831054518 75 11 0.0 0.0 0.00 0.04 0.00 95 1017.4
20260831054009 75 11 0.0 0.0 0.00 0.04 0.00 95 1017.5
20260831053511 75 11 0.0 0.0 0.00 0.04 0.00 95 1017.4
20260831053028 75 11 0.0 0.0 0.00 0.04 0.00 94 1017.3
20260831052512 75 11 0.0 0.0 0.00 0.04 0.00 94 1017.4
20260831052003 75 11 0.0 0.0 0.00 0.04 0.00 94 1017.5
20260831051511 75 11 0.0 0.0 0.00 0.04 0.00 94 1017.4
20260831051003 75 11 0.0 0.0 0.00 0.04 0.00 94 1017.4
20260831050503 75 11 0.0 0.0 0.00 0.04 0.00 94 1017.5
20260831050012 75 11 0.0 0.0 0.00 0.04 0.00 94 1017.5
20260831045507 75 11 0.0 0.0 0.00 0.04 0.04 94 1017.6
20260831045005 75 11 0.0 0.0 0.00 0.04 0.04 94 1017.6
20260831044516 75 11 0.0 0.0 0.00 0.04 0.04 94 1017.6
20260831044009 75 11 0.0 0.0 0.00 0.04 0.04 94 1017.5
20260831043514 75 11 0.0 0.0 0.00 0.04 0.04 93 1017.4
20260831043025 75 11 0.0 0.0 0.00 0.05 0.04 93 1017.5
20260831042513 75 11 0.0 0.0 0.00 0.05 0.04 93 1017.5
20260831042012 75 11 0.0 0.0 0.00 0.05 0.04 93 1017.5
20260831041530 76 11 0.0 0.0 0.00 0.05 0.04 93 1017.6
20260831041004 76 11 0.0 0.0 0.00 0.05 0.04 92 1017.5
20260831040504 76 11 0.0 0.0 0.00 0.05 0.04 92 1017.6
20260831040008 76 11 0.0 0.0 0.00 0.05 0.04 92 1017.6
20260831035503 76 11 0.0 0.0 0.00 0.05 0.04 92 1017.7
20260831035004 76 11 0.0 0.0 0.00 0.05 0.04 92 1017.7
20260831034515 76 11 0.0 0.0 0.00 0.05 0.04 91 1017.8
20260831034006 77 11 0.0 0.0 0.00 0.05 0.04 91 1017.9
20260831033508 77 11 0.0 0.0 0.00 0.05 0.04 90 1018.0
20260831033018 77 11 0.0 0.0 0.00 0.06 0.04 90 1018.0
20260831032509 77 11 0.0 0.0 0.00 0.06 0.04 90 1018.0
20260831032011 77 11 0.0 0.0 0.00 0.06 0.04 90 1018.0
20260831031539 77 11 0.0 0.0 0.00 0.06 0.04 89 1017.9
20260831031012 77 11 0.0 0.0 0.00 0.06 0.04 89 1017.8
20260831030512 77 11 0.0 0.0 0.00 0.06 0.04 89 1017.8
20260831030007 77 92 0.0 0.0 0.00 0.06 0.04 90 1017.8
20260831025502 78 92 0.0 0.0 0.00 0.06 0.04 89 1017.7
20260831025004 78 92 0.0 0.0 0.00 0.06 0.04 90 1017.9
20260831024510 78 92 0.0 0.0 0.00 0.06 0.04 89 1017.9
20260831024007 78 92 0.0 0.0 0.00 0.06 0.04 89 1017.9
20260831023504 78 92 0.0 0.0 0.00 0.06 0.04 90 1017.8
20260831023017 78 92 0.0 0.0 0.00 0.06 0.04 90 1017.8
20260831022510 78 92 0.0 0.0 0.00 0.07 0.04 90 1017.8
20260831022009 78 92 0.0 0.0 0.00 0.07 0.04 90 1017.8
20260831021525 79 92 0.0 0.0 0.00 0.07 0.04 89 1017.8
20260831021011 79 92 0.0 0.0 0.00 0.07 0.04 89 1017.7
20260831020512 79 92 0.0 0.0 0.00 0.07 0.04 89 1017.7
20260831020027 79 92 0.0 0.0 0.00 0.07 0.04 89 1017.7
20260831015513 79 92 0.0 0.0 0.00 0.07 0.04 89 1017.7
20260831015003 79 92 0.0 1.7 0.00 0.08 0.04 88 1017.7
20260831014508 79 92 0.0 2.6 0.00 0.08 0.04 88 1017.6
20260831014005 79 114 0.9 2.6 0.00 0.08 0.04 88 1017.5
20260831013504 80 90 0.0 1.7 0.00 0.08 0.04 88 1017.4
20260831013014 80 130 0.0 1.7 0.00 0.08 0.04 88 1017.4
20260831012508 80 130 0.0 1.7 0.00 0.08 0.04 87 1017.5
20260831012007 80 130 0.9 1.7 0.00 0.09 0.04 86 1017.3
20260831011527 81 123 0.0 0.0 0.00 0.09 0.04 86 1017.2
20260831011012 81 123 0.0 0.0 0.00 0.09 0.04 85 1017.3
20260831010517 81 171 0.0 2.6 0.00 0.10 0.04 84 1017.4
20260831010035 81 171 0.0 3.5 0.00 0.10 0.04 83 1017.3
20260831005514 82 170 0.9 6.1 0.00 0.10 0.04 83 1017.4
20260831005014 82 166 1.7 6.1 0.00 0.10 0.04 82 1017.4
20260831004508 82 165 3.5 6.1 0.00 0.11 0.04 81 1017.4
20260831004003 82 167 0.9 6.1 0.00 0.11 0.04 82 1017.4
20260831003505 82 196 1.7 4.3 0.00 0.11 0.04 82 1017.4
20260831003013 82 178 0.9 2.6 0.00 0.11 0.04 82 1017.4
20260831002507 82 185 0.9 3.5 0.00 0.12 0.04 82 1017.3
20260831002007 83 143 0.9 5.2 0.00 0.12 0.04 81 1017.4
20260831001517 83 160 2.6 5.2 0.00 0.12 0.04 81 1017.2
20260831001013 83 166 2.6 5.2 0.00 0.12 0.04 79 1017.3
20260831000512 84 123 2.6 7.0 0.00 0.13 0.04 79 1017.2
20260831000028 85 171 2.6 7.0 0.00 0.13 0.04 78 1017.1
20260830235512 85 66 0.0 0.0 0.00 0.13 0.04 78 1016.9
20260830235016 86 66 0.0 2.6 0.00 0.13 0.04 78 1016.7
20260830234543 86 61 0.0 2.6 0.00 0.13 0.04 77 1016.5
20260830234018 86 60 0.9 3.5 0.00 0.13 0.04 75 1016.4
20260830233505 86 49 0.0 3.5 0.00 0.13 0.04 75 1016.4
20260830233011 87 41 0.9 3.5 0.00 0.13 0.04 74 1016.3
20260830232506 87 55 0.9 3.5 0.00 0.13 0.04 74 1016.4
20260830232009 87 34 0.9 2.6 0.00 0.13 0.04 74 1016.3
20260830231517 87 24 0.9 3.5 0.00 0.13 0.04 73 1016.3
20260830231012 87 49 0.0 3.5 0.00 0.13 0.04 73 1016.3
20260830230510 87 27 0.9 3.5 0.00 0.13 0.04 73 1016.3
20260830230028 87 51 0.0 2.6 0.00 0.13 0.04 74 1016.2
20260830225513 87 36 0.9 1.7 0.00 0.13 0.04 74 1016.2
20260830225012 87 5 0.9 2.6 0.00 0.13 0.04 74 1016.2
20260830224527 87 17 0.9 2.6 0.00 0.13 0.04 72 1016.2
20260830224015 87 11 0.0 2.6 0.00 0.13 0.04 74 1016.2
20260830223516 87 24 0.0 2.6 0.00 0.13 0.04 73 1016.2
20260830223043 87 15 0.0 2.6 0.00 0.13 0.04 73 1016.2
20260830222502 88 34 0.9 2.6 0.00 0.13 0.04 72 1016.1
20260830222007 88 35 0.0 1.7 0.00 0.13 0.04 72 1016.1
20260830221525 88 36 0.0 3.5 0.00 0.13 0.04 71 1016.1
20260830221010 88 20 1.7 4.3 0.00 0.13 0.04 69 1016.0
20260830220509 88 42 0.9 7.0 0.00 0.13 0.04 67 1016.0
20260830220024 89 76 2.6 7.0 0.00 0.13 0.04 68 1016.0
20260830215509 89 20 1.7 5.2 0.00 0.13 0.04 68 1016.0
20260830215014 89 44 1.7 5.2 0.00 0.13 0.04 67 1016.0
20260830214530 89 14 1.7 7.0 0.00 0.13 0.04 68 1016.0
20260830214015 89 76 2.6 7.0 0.00 0.13 0.04 67 1016.0
20260830213514 89 87 2.6 6.1 0.00 0.13 0.04 68 1016.0
20260830213032 89 81 1.7 6.1 0.00 0.13 0.04 69 1016.0
20260830212518 89 42 1.7 4.3 0.00 0.13 0.04 67 1016.1
20260830212016 89 360 3.5 4.3 0.00 0.13 0.04 68 1016.2
20260830211514 89 31 1.7 3.5 0.00 0.13 0.04 71 1016.2
20260830211008 89 352 1.7 9.6 0.00 0.13 0.04 68 1016.2
20260830210509 90 5 3.5 9.6 0.00 0.13 0.04 66 1016.2
20260830210016 91 49 4.3 7.8 0.00 0.13 0.04 62 1016.2
20260830205512 91 88 3.5 7.0 0.00 0.13 0.04 63 1016.3
20260830205013 90 58 0.0 8.7 0.00 0.13 0.04 60 1016.4
20260830204536 91 82 3.5 8.7 0.00 0.13 0.04 60 1016.4
20260830204013 91 63 3.5 9.6 0.00 0.13 0.04 66 1016.4
20260830203503 90 94 3.5 9.6 0.00 0.13 0.04 62 1016.4
20260830203006 90 64 6.1 8.7 0.00 0.13 0.04 61 1016.4
20260830202504 90 94 7.0 8.7 0.00 0.13 0.04 64 1016.5
20260830202004 90 73 2.6 8.7 0.00 0.13 0.04 66 1016.5
20260830201511 90 69 5.2 8.7 0.00 0.13 0.04 65 1016.6
20260830201010 89 98 4.3 8.7 0.00 0.13 0.04 66 1016.6
20260830200507 89 101 0.9 7.0 0.00 0.13 0.04 65 1016.7
20260830200015 89 80 1.7 7.0 0.00 0.13 0.04 63 1016.6
20260830195509 89 78 2.6 6.1 0.00 0.13 0.04 65 1016.8
20260830195010 89 86 2.6 7.8 0.00 0.13 0.04 65 1016.8
20260830194524 88 115 3.5 7.8 0.00 0.13 0.04 64 1016.9
20260830194015 88 94 2.6 8.7 0.00 0.13 0.04 65 1017.0
20260830193514 88 111 5.2 8.7 0.00 0.13 0.04 66 1017.0
20260830193031 88 103 5.2 7.8 0.00 0.13 0.04 68 1017.1
20260830192502 88 87 3.5 6.1 0.00 0.13 0.04 70 1017.1
20260830192002 88 102 0.9 2.6 0.00 0.13 0.04 71 1017.4
20260830191508 87 75 0.9 3.5 0.00 0.13 0.04 74 1017.6
20260830191004 87 96 0.9 4.3 0.00 0.13 0.04 74 1017.7
20260830190508 87 78 0.9 7.0 0.00 0.13 0.04 73 1017.9
20260830190019 87 91 2.6 7.0 0.00 0.13 0.04 70 1017.9
20260830185507 87 63 1.7 7.0 0.00 0.13 0.04 71 1017.8
20260830185009 88 29 2.6 7.0 0.00 0.13 0.04 72 1017.9
20260830184523 88 53 0.9 7.8 0.00 0.13 0.04 71 1017.9
20260830184011 88 45 3.5 7.8 0.00 0.13 0.04 69 1018.0
20260830183513 89 74 4.3 7.8 0.00 0.13 0.04 70 1018.0
20260830183028 89 25 3.5 8.7 0.00 0.13 0.04 66 1018.1
20260830182514 89 80 2.6 8.7 0.00 0.13 0.04 67 1018.1
20260830182015 89 82 5.2 8.7 0.00 0.13 0.04 67 1018.1
20260830181507 89 149 2.6 8.7 0.00 0.13 0.04 68 1018.3
20260830181003 88 131 5.2 10.4 0.00 0.13 0.04 66 1018.3
20260830180506 88 107 7.8 10.4 0.00 0.13 0.04 66 1018.2
20260830180017 88 140 5.2 9.6 0.00 0.13 0.04 70 1018.3
20260830175506 88 74 3.5 8.7 0.00 0.13 0.04 68 1018.3
20260830175013 87 63 5.2 8.7 0.00 0.13 0.04 69 1018.4
20260830174520 88 88 4.3 7.0 0.00 0.13 0.04 70 1018.4
20260830174008 88 124 3.5 8.7 0.00 0.13 0.04 69 1018.5
20260830173515 88 71 4.3 8.7 0.00 0.13 0.04 70 1018.5
20260830173025 88 122 4.3 9.6 0.00 0.13 0.04 69 1018.5
20260830172514 88 110 2.6 9.6 0.00 0.13 0.04 68 1018.5
20260830172014 87 168 1.7 10.4 0.00 0.13 0.04 71 1018.5
20260830171531 87 121 7.8 10.4 0.00 0.13 0.04 69 1018.6
20260830171004 87 98 7.8 9.6 0.00 0.13 0.04 70 1018.6
20260830170502 87 96 5.2 10.4 0.00 0.13 0.04 71 1018.6
20260830170010 87 138 5.2 13.9 0.00 0.13 0.04 72 1018.7
20260830165502 87 61 8.7 13.9 0.00 0.13 0.04 71 1018.9
20260830165006 87 80 4.3 13.0 0.00 0.13 0.04 70 1018.9
20260830164541 87 125 7.8 13.0 0.00 0.13 0.04 70 1019.2